#timestamp,LO_Frequency,Hit,StdDev 
1560394815.2,286047002.8,N
1560394835.0,286047000.1,N
1560394835.9,286047000.1,N
1560394855.8,286047002.3,N
1560394875.6,286047002.8,N
1560394895.4,286047000.5,N
1560394915.3,286047000.6,N
1560394935.1,286047001.1,N
1560394955.8,286046998.3,N
1560394975.7,286047001.0,N
1560394995.5,286047000.7,N
1560395015.4,286046999.7,N
1560395035.2,286047000.9,N
1560395055.0,286047002.7,N
1560395055.9,286047002.7,N
1560395075.8,286046999.7,N
1560395095.6,286047002.3,N
1560395115.4,286046999.9,N
1560395135.3,286047000.5,N
1560395155.1,286047000.7,N
1560395175.9,286047000.5,N
1560395195.7,286047000.3,N
1560395215.5,286047001.2,N
1560395235.4,286047001.1,N
1560395255.2,286046999.8,N
1560395275.0,286047000.7,N
1560395275.9,286047000.7,N
1560395295.8,286047001.1,N
1560395315.6,286046999.0,N
1560395335.5,286046996.7,Y
1560395355.3,286046998.2,P
1560395375.1,286046999.6,N
1560395395.9,286046998.9,N
1560395415.7,286046998.2,N
1560395435.5,286046999.3,N
1560395455.4,286046999.6,N
1560395475.2,286046997.2,Y
1560395495.1,286046999.3,P
1560395496.0,286046999.3,P
1560395515.8,286046998.3,P
1560395535.6,286046998.3,Y
1560395555.5,286047000.9,P
1560395575.3,286047000.2,N
1560395595.2,286046999.7,N
1560395615.9,286047000.1,N
1560395635.7,286046999.8,N
1560395655.6,286047000.2,N
1560395675.4,286047000.4,N
1560395695.2,286046998.1,Y
1560395715.1,286046998.7,P
1560395716.0,286046998.7,N
1560395735.8,286047000.8,N
1560395755.7,286047000.7,N
1560395775.5,286047001.0,N
1560395795.3,286047000.1,N
1560395815.2,286047000.6,N
1560395835.9,286047000.2,N
1560395855.7,286047002.1,N
1560395875.6,286047002.3,N
1560395895.4,286047000.1,N
1560395915.3,286047002.7,N
1560395935.1,286047002.4,N
1560395936.0,286047002.4,N
1560395955.8,286046999.8,N
1560395975.7,286046999.7,N
1560395995.5,286047002.3,N
1560396015.3,286047001.8,N
1560396035.2,286047001.7,N
1560396055.0,286047002.5,N
1560396055.9,286047002.5,N
1560396075.8,286047001.8,N
1560396095.6,286046999.7,N
1560396115.4,286047002.8,N
1560396135.3,286047004.0,Y
1560396155.1,286047002.5,P
1560396175.8,286047001.8,N
1560396195.7,286047001.8,P
1560396215.5,286047004.2,Y
1560396235.4,286047000.9,P
1560396255.2,286047000.6,N
1560396275.0,286047001.0,N
1560396275.9,286047001.0,N
1560396295.8,286046998.1,Y
1560396315.6,286046998.8,P
1560396335.4,286047002.8,N
1560396355.3,286047000.2,N
1560396375.1,286047001.1,N
1560396395.9,286046998.4,N
1560396415.7,286046998.3,N
1560396435.5,286046998.7,N
1560396455.4,286046999.5,N
1560396475.2,286046998.3,N
1560396495.1,286046998.5,N
1560396496.0,286046998.5,N
1560396515.8,286047001.2,N
1560396535.6,286047000.6,N
1560396555.5,286046999.7,N
1560396575.3,286046999.7,N
1560396595.1,286047001.7,N
1560396615.9,286047001.4,N
1560396635.7,286047004.4,Y
1560396655.6,286047004.2,P
1560396675.4,286047001.7,N
1560396695.2,286047002.4,N
1560396715.1,286047002.1,N
1560396716.0,286047002.1,N
1560396735.8,286047001.9,N
1560396755.6,286047001.3,N
1560396775.5,286047001.5,N
1560396795.3,286047002.9,N
1560396815.2,286047003.4,Y
1560396835.9,286047001.3,P
1560396855.7,286047003.7,P
1560396875.6,286047003.9,P
1560396895.4,286047003.2,N
1560396915.2,286047003.4,Y
1560396935.1,286047002.3,P
1560396936.0,286047002.3,P
1560396955.8,286046999.7,N
1560396975.7,286047002.2,N
1560396995.5,286047002.5,N
1560397015.3,286047002.6,N
1560397035.2,286046999.9,N
1560397055.0,286047001.1,N
1560397055.9,286047001.1,N
1560397075.7,286047000.4,N
1560397095.6,286046999.8,N
1560397115.4,286047002.5,N
1560397135.3,286047002.7,N
1560397155.1,286047004.3,Y
1560397175.8,286047000.5,P
1560397195.7,286047000.4,N
1560397215.5,286047002.3,P
1560397235.4,286047001.9,N
1560397255.2,286047002.4,Y
1560397275.0,286047000.8,P
1560397275.9,286047000.8,N
1560397295.8,286047001.2,P
1560397315.6,286046998.3,Y
1560397335.5,286046996.8,P
1560397355.3,286046998.1,N
1560397375.1,286046999.0,N
1560397395.9,286046999.4,N
1560397415.7,286046996.9,N
1560397435.5,286046997.1,N
1560397455.4,286046999.2,N
1560397475.2,286046998.6,N
1560397495.0,286046998.4,N
1560397496.0,286046998.4,N
1560397515.8,286047000.7,N
1560397535.6,286046998.7,N
1560397555.5,286046999.0,N
1560397575.3,286047000.5,N
1560397595.1,286047000.8,N
1560397615.9,286046999.8,N
1560397635.7,286047000.4,N
1560397655.5,286046998.1,N
1560397675.4,286047001.0,N
1560397695.2,286046998.6,N
1560397715.1,286046999.0,N
1560397716.0,286046999.0,N
1560397735.8,286046996.6,N
1560397755.6,286046996.9,N
1560397775.5,286046998.1,N
1560397795.3,286046998.1,N
1560397815.1,286046998.9,N
1560397835.9,286046998.2,N
1560397855.7,286046998.7,N
1560397875.6,286047000.9,N
1560397895.4,286046998.2,N
1560397915.2,286046999.3,N
1560397935.1,286046998.1,N
1560397936.0,286046998.1,N
1560397955.8,286046999.4,N
1560397975.6,286046997.0,N
1560397995.5,286046999.4,N
1560398015.3,286046999.0,N
1560398035.2,286046998.7,N
1560398055.9,286046999.5,N
1560398075.7,286046996.7,N
1560398095.6,286046995.1,Y
1560398115.4,286046999.4,P
1560398135.2,286046999.3,N
1560398155.1,286046998.6,P
1560398156.0,286046998.6,Y
1560398175.8,286047001.2,P
1560398195.7,286046999.8,N
1560398215.5,286047002.2,N
1560398235.3,286047002.3,N
1560398255.2,286047002.8,N
1560398275.9,286047002.3,N
1560398295.7,286047002.7,N
1560398315.6,286047002.5,N
1560398335.4,286047002.2,N
1560398355.3,286047003.9,Y
1560398375.1,286047002.8,P
1560398376.0,286047002.8,P
1560398395.8,286047000.2,N
